Location: Bermeries
(50.2863°N, 3.7551°E)
Time: 21:22:38
(UTC+00:00)

Cosmos 1980 Rocket - Pass Details

Date: 23 May 2024
Orbit: 827 x 851 km, 71.0° (Epoch: 16 June)

Event Time Altitude Azimuth Distance (km) Brightness Sun altitude
Rises 01:04:02 0° 324° (NW) 3,428 5.9 -16.8°
Reaches altitude 10° 01:06:43 10° 315° (NW) 2,488 5.0 -16.6°
Maximum altitude 01:11:43 32° 254° (WSW) 1,417 3.1 -16.3°
Enters shadow 01:13:50 25° 217° (SW) 1,660 3.1 -16.2°
